Lid_Strength_Index
0 0 0 0 0 0 0 -0 -0 -0 -0 -1 -1 -1 -1 -1 -0 2 6 3 3 -1 1 6 7 8 7 8 9 11 14 16 15 14 12 11 11 11 10 10 11 10 9 9 7
0 0 0 0 0 0 0 0 0 -0 -0 -0 -1 -1 -1 -1 3 6 1 -1 -1 -0 6 8 9 9 10 10 10 12 15 14 13 13 12 11 12 10 11 12 12 11 10 8 5
-0 0 0 0 0 0 0 -0 -0 -0 -0 -1 -1 -1 -1 1 7 7 -1 -1 -2 1 6 7 8 9 11 11 10 13 14 12 12 11 11 11 12 11 12 13 11 10 10 9 7
-0 -0 0 0 0 0 -0 -0 -0 -0 -0 -0 -1 -1 -0 4 14 5 -1 -1 -1 4 6 8 9 11 12 13 11 12 12 12 11 10 11 12 11 12 12 11 10 10 9 9 8
-1 -0 -0 0 0 0 0 -0 -0 -0 -0 -0 -1 -1 4 10 8 4 -0 0 4 6 8 9 11 11 13 12 12 12 12 11 11 10 11 11 11 11 11 11 11 10 9 9 9
-1 -0 0 0 0 0 0 -0 -0 -0 -0 -0 -1 -0 6 12 4 4 4 5 6 7 8 9 9 10 11 12 13 12 11 11 11 11 11 11 12 11 11 11 11 10 11 11 10
-1 -0 -0 -0 -0 -0 -0 -0 -0 -0 -0 -0 -1 2 7 9 4 3 5 6 6 7 8 8 8 10 10 12 10 11 12 11 11 11 11 11 12 12 12 12 12 12 12 11 11
-1 -0 -0 -0 -0 -1 -1 -1 -1 -0 -0 -0 -1 4 8 4 4 5 5 6 6 7 7 7 7 9 10 10 11 13 13 15 12 11 12 11 14 11 12 12 12 13 13 12 11
0 -0 -0 -0 -0 -0 -1 -1 -1 -1 -1 -1 4 6 9 3 5 4 6 7 7 7 7 6 8 11 11 13 14 14 16 16 13 11 12 13 14 13 13 13 13 13 13 13 13
1 1 1 0 0 -0 -0 -1 -1 0 1 1 3 8 7 7 5 4 6 6 7 8 9 9 11 13 13 13 17 16 16 15 14 13 13 14 14 13 13 13 13 14 14 14 13
1 1 1 1 1 0 1 3 5 6 4 7 7 8 7 6 5 6 6 7 8 9 11 11 13 14 12 12 13 14 15 15 14 12 14 14 14 12 12 13 14 14 14 13 13
2 2 1 1 0 0 2 5 5 6 8 4 5 6 6 6 8 6 6 9 10 11 11 13 15 11 10 12 13 14 15 15 14 13 13 14 14 13 13 13 12 12 12 13 13
3 2 2 2 1 1 3 4 4 5 8 7 6 6 5 6 8 8 7 9 11 12 12 13 12 11 11 13 14 14 15 15 14 13 14 15 15 15 13 13 12 11 10 11 13
3 3 3 1 3 3 3 2 4 4 12 10 8 7 7 6 9 6 6 8 10 11 12 13 11 11 13 13 13 15 13 13 14 16 18 15 18 15 14 13 14 12 11 12 14
3 3 3 2 4 4 3 3 3 4 20 9 8 6 7 8 9 9 7 8 11 11 11 13 13 12 13 13 12 14 13 14 15 17 18 19 18 17 15 15 13 11 12 14 14
3 3 3 4 3 3 2 3 4 13 19 12 10 10 10 10 11 10 10 9 10 12 13 13 12 12 12 13 12 12 14 15 17 17 20 17 17 15 15 14 13 13 13 14 14
3 3 3 2 5 3 2 4 14 18 11 13 13 11 12 13 13 12 12 13 13 15 16 14 14 12 12 14 14 14 15 20 21 21 20 18 18 14 13 12 13 13 13 14 15
3 4 3 3 2 2 4 9 17 13 13 11 12 12 13 12 13 13 14 15 13 15 17 17 17 14 13 13 14 15 15 19 23 22 20 18 20 16 14 13 13 14 14 15 15
2 4 4 3 2 2 8 16 15 13 10 11 11 13 13 12 12 14 15 15 13 13 15 17 17 14 14 13 12 16 17 14 18 25 22 19 17 14 13 13 13 15 16 16 16
5 4 5 2 1 4 10 14 13 10 9 10 14 12 15 13 13 14 15 13 13 12 11 13 16 15 14 13 13 14 13 17 17 22 22 20 19 17 14 13 14 15 16 16 16
5 7 4 1 2 7 13 12 11 9 9 11 12 13 13 13 12 13 13 12 11 12 10 12 14 16 14 15 15 15 16 15 14 17 22 23 18 15 14 14 14 14 15 16 17
6 10 3 1 9 9 12 10 9 9 9 9 9 10 12 12 13 13 13 11 10 11 13 12 13 18 16 14 13 13 14 13 17 19 18 19 17 14 14 15 14 14 15 16 16
8 8 3 3 12 11 10 10 9 10 9 10 10 9 9 11 14 12 12 9 10 11 12 11 14 18 17 14 13 15 14 12 13 15 18 19 17 15 14 14 14 14 16 16 17
7 11 8 5 6 9 10 10 11 9 10 9 9 9 10 12 10 13 12 10 10 10 9 9 13 16 17 16 14 16 15 13 13 17 17 16 14 12 14 14 14 15 15 17 17
7 10 8 11 10 9 9 10 11 11 9 9 10 10 11 13 12 12 11 10 10 9 9 10 15 13 13 13 14 14 14 14 14 13 16 14 14 12 11 11 10 12 14 16 17
10 11 8 10 8 9 9 11 11 10 9 11 11 11 10 12 12 13 11 11 11 11 10 10 15 13 15 13 13 14 14 14 13 12 12 12 13 9 10 11 12 12 14 15 16
8 7 7 10 11 11 10 10 10 9 8 8 9 10 11 10 9 9 9 8 9 11 12 12 13 15 17 13 14 17 14 13 12 11 11 14 11 9 10 9 9 10 13 13 13